Volver al catálogo

SL-8 DEB

ActivoLEO
NORAD 37886·DEBRIS·🇷🇺 Russia

Lanzado Dec 17, 1971 desde Plesetsk Cosmodrome

Loading…

Próximos Pases (próximas 24 horas)

TLE

EnvejeciendoSource: Space-Track

Época: Sep 11, 2026, 12:43 UTC

1 37886U 71114E   26254.53017407  .00000097  00000-0  39455-4 0  9998
2 37886  74.0298 347.7931 0024567 310.4359  49.4652 14.39806869693694

Sigue SL-8 DEB en tiempo real con AllMySat

Download on the App Store